Retour au catalogue

BREEZE-M DEB

LostHEO
NORAD 32489·DEBRIS·🇷🇺 Russia

Lancé Feb 28, 2006 depuis Baikonur Cosmodrome

Loading…

Prochains Passages (prochaines 24 heures)

TLE

PériméSource: Space-Track

Époque: Nov 28, 2008, 15:22 UTC

1 32489U 06006AC  08333.64079042  .00005490  00000-0  16876+0 0  9992
2 32489  50.1223 116.8569 4569164 224.2940  87.6668  5.41280188 19744

Suivez BREEZE-M DEB en temps réel avec AllMySat

Download on the App Store